Location: Home
(42.5358°N, 72.7383°W)
Time: 09:43:43
(UTC-05:00)

Transit 4A - Pass Details

Date: 01 December 2021
Orbit: 864 x 981 km, 66.8° (Epoch: 21 January)

Event Time Altitude Azimuth Distance (km) Brightness Sun altitude
Rises 19:47:14 0° 214° (SW) 3,442 11.2 -37.8°
Reaches altitude 10° 19:49:41 10° 216° (SW) 2,517 10.4 -38.2°
Enters shadow 19:50:44 16° 217° (SW) 2,127 10.0 -38.4°
